Regional Weather Roundup
Issued by NWS Jackson, KY

Home | Current Version | Previous Version | Text Only | Print | Product List | Glossary On
Versions: 1 2 3 4 5 6 7 8 9 10 11 12 13 14 15 16 17 18 19 20 21 22 23 24 25 26 27 28 29 30 31 32 33 34 35 36 37 38 39 40 41 42 43 44 45 46 47 48 49 50
000
ASUS43 KJKL 242210
RWRJKL

EAST KENTUCKY HOURLY WEATHER ROUNDUP
NATIONAL WEATHER SERVICE JACKSON KY
600 PM EDT SAT JUN 24 2017

NOTE: "FAIR" INDICATES FEW OR NO CLOUDS BELOW 12,000 FEET WITH
NO SIGNIFICANT WEATHER AND/OR OBSTRUCTIONS TO VISIBILITY.

* THESE REPORTS ARE NOT UNDER NWS QUALITY CONTROL AND MAY NOT
  REPORT WEATHER SUCH AS PRECIPITATION AND FOG.

KYZ079-080-083-085-087-088-110-112-115-119-120-242300
...EASTERN KENTUCKY...

CITY           SKY/WX    TMP DP  RH WIND       PRES   REMARKS
JACKSON        SUNNY     79  61  53 VRB6      30.02S
LONDON         CLOUDY    80  55  42 NW13      30.02F
SOMERSET*      SUNNY     77  55  47 NW8G17    30.05R
MONTICELLO*    MOSUNNY   79  63  57 NW18      30.05S
WILLIAMSBURG*  CLOUDY    81  59  47 NW8       30.03S
MIDDLESBORO*   SUNNY     81  60  49 NW7       30.02S
HARLAN APT*    PTCLDY    81  55  41 SW8       30.03S
PIKE CO APT*   PTSUNNY   77  61  57 W5        30.02S
BIG SANDY APT* PTCLDY    79  61  54 NW5       30.01S
MOREHEAD APT*  PTCLDY    79  57  47 NW9       30.03S HAZE
$$

KYZ035-036-041-042-044-050-067-078-099-242300
...CENTRAL KENTUCKY...

CITY           SKY/WX    TMP DP  RH WIND       PRES   REMARKS
MT STERLING*   MOSUNNY   77  59  53 NW7       30.04S
FLEMING/MASON* MOSUNNY   78  56  47 NW12G17   30.02S
DANVILLE*      MOSUNNY   79  55  44 NW12      30.05S
LEXINGTON      MOSUNNY   79  56  45 W10       30.03S
FRANKFORT      SUNNY     78  56  46 NW10G16   30.02S
LOUISVILLE     PTSUNNY   80  55  42 W17       30.03S
LEBANON*         N/A    N/A N/A N/A MISG        N/A
GLASGOW*       MOSUNNY   78  58  50 W9        30.05F
BOWLING GREEN  MOSUNNY   79  57  46 N9        30.06S
$$

KYZ091>093-OHZ055-061-077-WVZ005-015-034-035-042-242300
...SOUTHERN OHIO/WEST VIRGINIA...

CITY           SKY/WX    TMP DP  RH WIND       PRES   REMARKS
COVINGTON      PTSUNNY   76  57  51 W13       30.01S
COLUMBUS       PTSUNNY   79  57  46 NW16      29.95F
DAYTON         MOSUNNY   77  53  43 W15       30.00S
WILMINGTON     SUNNY     75  58  55 W14       29.99S
HUNTINGTON     PTSUNNY   78  59  51 W7        29.98S
CHARLESTON     MOSUNNY   80  61  52 W5        29.98S
PINEVILLE*     MOSUNNY   79  62  57 MISG      30.07R
BECKLEY        MOSUNNY   76  55  48 W10       30.05S
BLUEFIELD      SUNNY     73  52  47 NW9       30.07S
LOGAN CO APT*    N/A     77  59  53 CALM      30.01F
$$

VAZ002-007-008-TNZ017-027-036-066-071-242300
...SOUTHWEST VIRGINIA/EAST TENNESSEE...

CITY           SKY/WX    TMP DP  RH WIND       PRES   REMARKS
WISE*          MOSUNNY   75  55  50 W5        30.09S
JONESVILLE*      N/A     82  59  44 NW7       30.04R
ABINGDON*      PTSUNNY   80  64  56 N5        30.02F
BRISTOL        PTSUNNY   84  60  44 W12       29.99S
MORRISTOWN*    CLEAR     82  61  47 NW9G15    30.00R
SEVIERVILLE*   MOCLDY    82  64  54 VRB6      29.98S
KNOXVILLE      PTSUNNY   85  60  42 W10       29.98S
LAFOLLETTE*    CLEAR     81  61  50 VRB5G12   30.05S
OAK RIDGE      SUNNY     85  59  41 VRB5      30.01R
CROSSVILLE     MOSUNNY   77  61  57 NW9       30.07S
NASHVILLE      PTSUNNY   82  58  43 NW16G22   30.06S
$$

...KEY TO REMARKS...
VSB - VISIBILITY IN MILES
WCI - WIND CHILL INDEX
HX  - HEAT INDEX

$$



USA.gov is the U.S. government's official web portal to all federal, state and local government web resources and services.